Home > Time Zones > World Clock > Weather > Yemen > Sana > Past weeks

Flag for Yemen Weather past 2 weeks in Sana, Yemen

Now
73 °F

Passing clouds.


Feels Like: 73 °F
Forecast: 33 / 73 °F
Wind: 8 mph from East

Location: Sana'A Airport

Current Time: Dec 29, 2014 at 6:27:01 PM

Latest Report: Dec 29, 2014 at 4:00 PM


Visibility: N/A

Pressure: 30.30 "Hg

Humidity: 6%

Dew point: 1 °F

Location of SanaLocation

Historic Weather in Sana — Graph

°F

Sana temperature yesterday

Maximum temperature yesterday: 73 °F (at 2:00 PM)
Minimum temperature yesterday: 37 °F (at 5:00 AM)
Average temperature yesterday: 55 °F

Past Weeks' High & Low Weather Summary

 TemperatureHumidityPressure
High81 °F (Dec 14, 6:00 PM)71% (Dec 24, 4:00 AM)30.45 "Hg (Dec 24, 4:00 AM)
Low36 °F (Dec 29, 7:00 AM)6% (Dec 21, 3:00 PM)29.98 "Hg (Dec 14, 6:00 PM)
Average56 °F34%30.35 "Hg
* Reported Dec 14 5:00 PM — Dec 29 4:00 PM, Sana, Weather by CustomWeather, © 2014

Note: Actual official high and low records may vary slightly from our data, if they occured in-between our weather recording intervals... More about our weather records

Advertising

Sana weather history for previous 24 hours

 ConditionsComfort  
Time TempWeatherWind HumidityBarometerVisibility
4:00 PM
Dec 29
73 °FPassing clouds.8 mph6%30.30 "HgN/A
3:00 PM73 °FPassing clouds.8 mph6%30.30 "HgN/A
2:00 PM72 °FSunny.13 mph6%30.30 "Hg10 mi
1:00 PM72 °FPassing clouds.8 mph7%30.33 "HgN/A
12:00 PM66 °FPassing clouds.9 mph8%30.36 "HgN/A
11:00 AM64 °FPassing clouds.6 mph9%30.39 "HgN/A
10:00 AM59 °FSunny.1 mph13%30.42 "Hg10 mi
9:00 AM52 °FClear.2 mph13%30.42 "Hg5 mi
8:00 AM45 °FSunny.2 mph25%30.39 "Hg10 mi
7:00 AM36 °FSunny.No wind38%30.36 "Hg10 mi
6:00 AM37 °FClear.1 mph35%30.36 "Hg10 mi
5:00 AM39 °FClear.2 mph33%30.36 "Hg10 mi
4:00 AM39 °FClear.1 mph30%30.36 "Hg10 mi
3:00 AM41 °FClear.2 mph28%30.36 "Hg10 mi
2:00 AM43 °FClear.2 mph29%30.36 "Hg10 mi
1:00 AM46 °FClear.3 mph27%30.39 "Hg10 mi
12:00 AM46 °FClear.2 mph25%30.39 "Hg10 mi
11:00 PM
Dec 28
48 °FClear.3 mph25%30.39 "Hg10 mi
10:00 PM52 °FClear.2 mph24%30.42 "Hg10 mi
9:00 PM55 °FClear.2 mph23%30.42 "Hg10 mi
8:00 PM55 °FClear.2 mph24%30.42 "Hg10 mi
7:00 PM59 °FPassing clouds.6 mph23%30.39 "HgN/A
6:00 PM63 °FPassing clouds.7 mph19%30.36 "HgN/A
Weather by CustomWeather, © 2014

See weather overviewHow to use our weather pages